When you browse on this site, cookies collect data to enhance your experience and personalize the content and advertising you see.
Visit our Privacy Policy to learn more. By continuing to use the site, you agree to this use of cookies and data.
  • In Austria
  • List of Countries
  • For 7 days
  • Water Temperature
  • Weather Map
  • News
  • Weather Widgets
  • user-avatar
    Login

    Hourly Weather Mainz

    Today, 31 May, Sunday

    Time Temperature Precipitation Wind Pressure Humidity
    00:00 +13°C° 0 mm 2 mps 757 mmHg 67%
    01:00 +12°C° 0 mm 1 mps 757 mmHg 67%
    02:00 +12°C° 0 mm 2 mps 757 mmHg 70%
    03:00 +10°C° 0 mm 2 mps 757 mmHg 72%
    04:00 +10°C° 0 mm 2 mps 757 mmHg 75%
    05:00 +12°C° 0 mm 2 mps 757 mmHg 73%
    06:00 +12°C° 0 mm 2 mps 757 mmHg 71%
    07:00 +14°C° 0 mm 2 mps 757 mmHg 67%
    08:00 +14°C° 0 mm 3 mps 757 mmHg 61%
    09:00 +16°C° 0 mm 3 mps 757 mmHg 54%
    10:00 +18°C° 0 mm 3 mps 757 mmHg 48%
    11:00 +19°C° 0 mm 3 mps 757 mmHg 46%
    12:00 +20°C° 0 mm 4 mps 756 mmHg 44%
    13:00 +21°C° 0 mm 4 mps 756 mmHg 42%
    14:00 +21°C° 0 mm 4 mps 756 mmHg 42%
    15:00 +21°C° 0 mm 4 mps 756 mmHg 43%
    16:00 +21°C° 0 mm 4 mps 756 mmHg 43%
    17:00 +20°C° 0 mm 3 mps 756 mmHg 47%
    18:00 +20°C° 0 mm 3 mps 756 mmHg 51%
    19:00 +19°C° 0 mm 3 mps 756 mmHg 54%
    20:00 +18°C° 0 mm 3 mps 756 mmHg 58%
    21:00 +16°C° 0 mm 3 mps 757 mmHg 61%
    22:00 +14°C° 0 mm 3 mps 757 mmHg 64%
    23:00 +13°C° 0 mm 3 mps 757 mmHg 68%

    Tomorrow, 1 June, Monday

    Time Temperature Precipitation Wind Pressure Humidity
    00:00 +14°C° 0 mm 2 mps 757 mmHg 72%
    01:00 +13°C° 0 mm 2 mps 757 mmHg 76%
    02:00 +13°C° 0 mm 2 mps 757 mmHg 79%
    03:00 +12°C° 0 mm 1 mps 757 mmHg 82%
    04:00 +12°C° 0 mm 1 mps 757 mmHg 84%
    05:00 +13°C° 0 mm 2 mps 757 mmHg 81%
    06:00 +14°C° 0 mm 2 mps 757 mmHg 77%
    07:00 +15°C° 0 mm 2 mps 757 mmHg 74%
    08:00 +17°C° 0 mm 3 mps 757 mmHg 67%
    09:00 +19°C° 0 mm 3 mps 757 mmHg 61%
    10:00 +21°C° 0 mm 4 mps 757 mmHg 54%
    11:00 +22°C° 0 mm 4 mps 757 mmHg 50%
    12:00 +23°C° 0 mm 4 mps 756 mmHg 46%
    13:00 +25°C° 0 mm 4 mps 756 mmHg 42%
    14:00 +25°C° 0 mm 4 mps 756 mmHg 42%
    15:00 +26°C° 0 mm 4 mps 756 mmHg 42%
    16:00 +26°C° 0 mm 4 mps 756 mmHg 41%
    17:00 +25°C° 0 mm 3 mps 756 mmHg 46%
    18:00 +24°C° 0 mm 3 mps 755 mmHg 51%
    19:00 +22°C° 0 mm 3 mps 755 mmHg 56%
    20:00 +21°C° 0 mm 3 mps 756 mmHg 61%
    21:00 +19°C° 0 mm 3 mps 756 mmHg 66%
    22:00 +18°C° 0 mm 3 mps 756 mmHg 70%
    23:00 +17°C° 0 mm 3 mps 756 mmHg 73%

    Day after tomorrow, 2 June, Tuesday

    Time Temperature Precipitation Wind Pressure Humidity
    00:00 +16°C° 0 mm 2 mps 756 mmHg 75%
    01:00 +15°C° 0 mm 2 mps 756 mmHg 77%
    02:00 +15°C° 0 mm 2 mps 756 mmHg 78%
    03:00 +14°C° 0 mm 2 mps 756 mmHg 80%
    04:00 +14°C° 0 mm 2 mps 756 mmHg 81%
    05:00 +15°C° 0 mm 2 mps 756 mmHg 76%
    06:00 +16°C° 0 mm 2 mps 756 mmHg 72%
    07:00 +17°C° 0 mm 2 mps 756 mmHg 68%
    08:00 +18°C° 0 mm 2 mps 755 mmHg 62%
    09:00 +20°C° 0 mm 2 mps 755 mmHg 56%
    10:00 +22°C° 0 mm 3 mps 755 mmHg 51%
    11:00 +24°C° 0 mm 3 mps 755 mmHg 47%
    12:00 +25°C° 0 mm 3 mps 754 mmHg 43%
    13:00 +26°C° 0 mm 3 mps 754 mmHg 39%
    14:00 +26°C° 0 mm 3 mps 753 mmHg 39%
    15:00 +26°C° 0 mm 2 mps 752 mmHg 39%
    16:00 +26°C° 0 mm 2 mps 752 mmHg 39%
    17:00 +26°C° 0 mm 2 mps 751 mmHg 44%
    18:00 +25°C° 0 mm 2 mps 751 mmHg 49%
    19:00 +24°C° 0 mm 1 mps 751 mmHg 54%
    20:00 +22°C° 0 mm 1 mps 751 mmHg 58%
    21:00 +21°C° 0 mm 1 mps 751 mmHg 62%
    22:00 +19°C° 0 mm 1 mps 751 mmHg 66%
    23:00 +18°C° 0 mm 1 mps 750 mmHg 68%

    3 June, Wednesday

    Time Temperature Precipitation Wind Pressure Humidity
    00:00 +18°C° 0 mm 1 mps 750 mmHg 70%
    01:00 +16°C° 0 mm 1 mps 750 mmHg 72%
    02:00 +16°C° 0 mm 1 mps 750 mmHg 74%
    03:00 +15°C° 0 mm 1 mps 749 mmHg 76%
    04:00 +14°C° 0 mm 0 mps 749 mmHg 78%
    05:00 +15°C° 0 mm 0 mps 749 mmHg 75%
    06:00 +18°C° 0 mm 1 mps 748 mmHg 71%
    07:00 +19°C° 0 mm 1 mps 748 mmHg 68%
    08:00 +21°C° 0 mm 1 mps 748 mmHg 62%
    09:00 +22°C° 0 mm 1 mps 748 mmHg 56%
    10:00 +24°C° 0 mm 1 mps 747 mmHg 50%
    11:00 +25°C° 0 mm 2 mps 747 mmHg 47%
    12:00 +26°C° 0 mm 2 mps 746 mmHg 43%
    13:00 +27°C° 0 mm 2 mps 746 mmHg 40%
    14:00 +27°C° 0 mm 2 mps 745 mmHg 38%
    15:00 +27°C° 0 mm 2 mps 745 mmHg 37%
    16:00 +28°C° 0 mm 2 mps 744 mmHg 36%
    17:00 +27°C° 0 mm 1 mps 744 mmHg 41%
    18:00 +26°C° 0 mm 1 mps 744 mmHg 46%
    19:00 +25°C° 0 mm 1 mps 743 mmHg 50%
    20:00 +23°C° 0 mm 1 mps 743 mmHg 53%
    21:00 +22°C° 0 mm 1 mps 744 mmHg 55%
    22:00 +20°C° 0 mm 1 mps 744 mmHg 58%
    23:00 +20°C° 0 mm 1 mps 743 mmHg 61%

    4 June, Thursday

    Time Temperature Precipitation Wind Pressure Humidity
    00:00 +19°C° 0 mm 1 mps 743 mmHg 63%
    01:00 +19°C° 0 mm 1 mps 743 mmHg 66%
    02:00 +19°C° 0.2 mm 1 mps 743 mmHg 70%
    03:00 +18°C° 0.2 mm 1 mps 742 mmHg 74%
    04:00 +17°C° 0.2 mm 2 mps 742 mmHg 78%
    05:00 +18°C° 0.3 mm 1 mps 742 mmHg 81%
    06:00 +18°C° 0.3 mm 1 mps 742 mmHg 84%
    07:00 +18°C° 0.3 mm 1 mps 742 mmHg 88%
    08:00 +18°C° 1 mm 1 mps 742 mmHg 88%
    09:00 +17°C° 1 mm 2 mps 742 mmHg 89%
    10:00 +18°C° 1 mm 2 mps 742 mmHg 89%
    11:00 +18°C° 0.5 mm 3 mps 742 mmHg 84%
    12:00 +19°C° 0.5 mm 3 mps 742 mmHg 79%
    13:00 +19°C° 0.5 mm 3 mps 742 mmHg 74%
    14:00 +20°C° 0.1 mm 3 mps 743 mmHg 70%
    15:00 +21°C° 0.1 mm 4 mps 743 mmHg 66%
    16:00 +21°C° 0.1 mm 4 mps 743 mmHg 62%
    17:00 +21°C° 0.1 mm 4 mps 743 mmHg 63%
    18:00 +20°C° 0.1 mm 3 mps 744 mmHg 64%
    19:00 +19°C° 0.1 mm 3 mps 744 mmHg 66%
    20:00 +18°C° 0 mm 3 mps 744 mmHg 70%
    21:00 +16°C° 0 mm 2 mps 745 mmHg 74%
    22:00 +15°C° 0 mm 2 mps 745 mmHg 79%
    23:00 +14°C° 0 mm 2 mps 746 mmHg 80%

    5 June, Friday

    Time Temperature Precipitation Wind Pressure Humidity
    00:00 +13°C° 0 mm 2 mps 746 mmHg 82%
    01:00 +13°C° 0 mm 2 mps 746 mmHg 83%
    02:00 +12°C° 0 mm 1 mps 746 mmHg 83%
    03:00 +12°C° 0 mm 1 mps 746 mmHg 84%
    04:00 +11°C° 0 mm 1 mps 746 mmHg 84%
    05:00 +12°C° 0 mm 1 mps 746 mmHg 79%
    06:00 +13°C° 0 mm 1 mps 747 mmHg 75%
    07:00 +13°C° 0 mm 0 mps 747 mmHg 71%
    08:00 +16°C° 0 mm 1 mps 747 mmHg 65%
    09:00 +19°C° 0 mm 1 mps 747 mmHg 59%
    10:00 +21°C° 0 mm 1 mps 746 mmHg 53%
    11:00 +22°C° 0 mm 1 mps 746 mmHg 51%
    12:00 +23°C° 0 mm 2 mps 746 mmHg 48%
    13:00 +24°C° 0 mm 2 mps 745 mmHg 45%
    14:00 +25°C° 0 mm 2 mps 745 mmHg 45%
    15:00 +25°C° 0 mm 2 mps 745 mmHg 44%
    16:00 +26°C° 0 mm 2 mps 744 mmHg 43%
    17:00 +25°C° 0 mm 1 mps 744 mmHg 48%
    18:00 +24°C° 0 mm 1 mps 744 mmHg 52%
    19:00 +24°C° 0 mm 1 mps 744 mmHg 56%
    20:00 +22°C° 0 mm 1 mps 744 mmHg 60%
    21:00 +20°C° 0 mm 1 mps 744 mmHg 64%
    22:00 +17°C° 0 mm 0 mps 744 mmHg 67%
    23:00 +16°C° 0 mm 0 mps 744 mmHg 69%
    Show more